Philip, SD

12:20 PM MDT on August 20, 2017 (GMT -0600)
Philip

Weather History for KPHP - March, 2012

Change the Weather History Date:

Saturday, March 24, 2012

  Actual Average Record
Temperature  
Mean Temperature 50 °F 38 °F  
Max Temperature 65 °F 51 °F 77 °F (1956)
Min Temperature 34 °F 25 °F 0 °F (1964)
Degree Days  
Heating Degree Days 15 27  
Month to date heating degree days 432 758  
Since 1 July heating degree days 5138 6123  
Cooling Degree Days 0 0  
Month to date cooling degree days 0 0  
Year to date cooling degree days 0 0  
Moisture  
Dew Point 35 °F    
Average Humidity 57    
Maximum Humidity 83    
Minimum Humidity 31    
Precipitation  
Precipitation 0.00 in 0.04 in 0.53 in (1973)
Month to date precipitation 0.03 0.99  
Year to date precipitation 0.75 1.77  
Sea Level Pressure  
Sea Level Pressure 30.06 in    
Wind  
Wind Speed 13 mph (North)    
Max Wind Speed 31 mph    
Max Gust Speed 40 mph    
Visibility 10 miles    
Events      
T = Trace of Precipitation, MM = Missing Value Source: NWS Daily Summary

Daily Weather History Graph

Daily Weather History Graph

Search for Another Location

Airport or City:

Trip Planner

Search our weather history database for the weather conditions in past years. The results will help you decide how hot, cold, wet, or windy it might be!

Date:

Astronomy

Mar. 24, 2012 Rise Set
Actual Time 6:41 AM MDT 7:04 PM MDT
Civil Twilight 6:12 AM MDT 7:33 PM MDT
Nautical Twilight 5:38 AM MDT 8:07 PM MDT
Astronomical Twilight 5:03 AM MDT 8:42 PM MDT
Moon 7:15 AM MDT (3/24) 9:32 PM MDT (3/24)
Length of Visible Light 13h 20m
Length of Day
12h 23m
Waxing Crescent, 4% of the Moon is Illuminated
Mar 24
Waxing Crescent
Mar 30
First Quarter
Apr 6
Full
Apr 13
Last Quarter
Apr 21
New

Hourly Weather History & Observations

Time (MDT) Temp. Windchill Dew Point Humidity Pressure Visibility Wind Dir Wind Speed Gust Speed Precip Events Conditions
12:55 AM 48.9 °F - 37.9 °F 66% 29.83 in 10.0 mi Calm Calm - N/A   Clear
1:55 AM 46.0 °F 43.9 °F 37.9 °F 73% 29.83 in 10.0 mi East 4.6 mph - N/A   Clear
2:55 AM 44.1 °F 41.5 °F 37.0 °F 76% 29.84 in 10.0 mi NW 4.6 mph - N/A   Clear
3:55 AM 44.1 °F 37.7 °F 39.0 °F 82% 29.86 in 10.0 mi West 12.7 mph - N/A   Clear
4:55 AM 48.0 °F - 37.9 °F 68% 29.89 in 10.0 mi NW 17.3 mph - N/A   Clear
5:55 AM 46.0 °F 37.8 °F 36.0 °F 68% 29.93 in 10.0 mi NW 23.0 mph 33.4 mph N/A   Clear
6:55 AM 44.1 °F 37.7 °F 37.0 °F 76% 30.02 in 10.0 mi NW 12.7 mph 20.7 mph N/A   Partly Cloudy
7:07 AM 44.6 °F 37.4 °F 37.4 °F 76% 30.02 in 10.0 mi NW 16.1 mph 21.9 mph N/A   Mostly Cloudy
7:55 AM 48.0 °F - 39.9 °F 74% 30.04 in 10.0 mi NW 26.5 mph 35.7 mph N/A   Overcast
8:55 AM 45.0 °F 36.4 °F 36.0 °F 71% 30.09 in 10.0 mi NNW 23.0 mph 31.1 mph N/A   Overcast
9:39 AM 46.4 °F 37.9 °F 35.6 °F 66% 30.10 in 10.0 mi NNW 25.3 mph 35.7 mph N/A   Scattered Clouds
9:55 AM 46.0 °F 39.0 °F 35.1 °F 66% 30.12 in 10.0 mi NNW 17.3 mph 32.2 mph N/A   Partly Cloudy
10:55 AM 52.0 °F - 34.0 °F 50% 30.11 in 10.0 mi NNW 20.7 mph 27.6 mph N/A   Clear
11:55 AM 55.9 °F - 35.1 °F 45% 30.11 in 10.0 mi North 16.1 mph 24.2 mph N/A   Clear
12:55 PM 59.0 °F - 34.0 °F 39% 30.11 in 10.0 mi North 10.4 mph 19.6 mph N/A   Clear
1:55 PM 63.0 °F - 33.1 °F 33% 30.10 in 10.0 mi NNE 17.3 mph 21.9 mph N/A   Clear
2:55 PM 64.0 °F - 34.0 °F 33% 30.10 in 10.0 mi North 13.8 mph 23.0 mph N/A   Clear
3:55 PM 63.0 °F - 33.1 °F 33% 30.10 in 10.0 mi NE 16.1 mph - N/A   Clear
4:55 PM 62.1 °F - 33.1 °F 34% 30.10 in 10.0 mi NE 17.3 mph 24.2 mph N/A   Clear
5:55 PM 60.1 °F - 33.1 °F 36% 30.12 in 10.0 mi NE 13.8 mph - N/A   Clear
6:55 PM 54.0 °F - 33.1 °F 45% 30.14 in 10.0 mi NE 9.2 mph - N/A   Clear
7:55 PM 46.9 °F - 34.0 °F 61% 30.16 in 10.0 mi ENE 10.4 mph - N/A   Clear
8:55 PM 41.0 °F 36.4 °F 32.0 °F 70% 30.19 in 10.0 mi East 6.9 mph - N/A   Clear
9:55 PM 39.0 °F 34.8 °F 30.9 °F 73% 30.20 in 10.0 mi ENE 5.8 mph - N/A   Clear
10:55 PM 37.0 °F 34.5 °F 30.9 °F 79% 30.20 in 10.0 mi East 3.5 mph - N/A   Clear
11:55 PM 36.0 °F - 30.0 °F 79% 30.20 in 10.0 mi Calm Calm - N/A   Clear